Peoria, IL

8:14 PM CST on November 21, 2019 (GMT -0600)
Greater Peoria Regional

Weather History for KPIA - September, 2019

Change the Weather History Date:

Tuesday, September 24, 2019

  Actual Average Record
Temperature  
Mean Temperature 68 °F 62 °F  
Max Temperature 80 °F 74 °F 92 °F (1933)
Min Temperature 57 °F 51 °F 33 °F (1989)
Degree Days  
Heating Degree Days 0 5  
Month to date heating degree days 0 50  
Since 1 July heating degree days 0 56  
Cooling Degree Days 4 2  
Month to date cooling degree days 191 106  
Year to date cooling degree days 1173 1013  
Growing Degree Days 18 (Base 50)    
Moisture  
Dew Point 56 °F    
Average Humidity 69    
Maximum Humidity 93    
Minimum Humidity 45    
Precipitation  
Precipitation 0.00 in 0.10 in 1.90 in (1902)
Month to date precipitation 3.68 2.57  
Year to date precipitation 37.20 27.52  
Snow  
Snow 0.00 in 0.00 in 0.00 in ()
Month to date snowfall 0.0 0.0  
Since 1 July snowfall 0.0 0.0  
Since 1 September snowfall 0.0 0.0  
Snow Depth 0.00 in    
Sea Level Pressure  
Sea Level Pressure 29.94 in    
Wind  
Wind Speed 6 mph ()    
Max Wind Speed 17 mph    
Max Gust Speed 25 mph    
Visibility 10.0 miles    
Events      
T = Trace of Precipitation, MM = Missing Value Source: Averaged Metar Reports

Daily Weather History Graph

Daily Weather History Graph

Search for Another Location

Airport or City:

Astronomy

Sep. 24, 2019 Rise Set
Actual Time 6:48 AM CDT 6:52 PM CDT
Civil Twilight 6:20 AM CDT 7:20 PM CDT
Nautical Twilight 5:48 AM CDT 7:51 PM CDT
Astronomical Twilight 5:16 AM CDT 8:24 PM CDT
Moon 1:31 AM CDT (9/24) 4:40 PM CDT (9/24)
Length of Visible Light 12h 59m
Length of Day
12h 04m
Waning Crescent, 23% of the Moon is Illuminated
Sep 24
Waning Crescent
Sep 28
New
Oct 5
First Quarter
Oct 13
Full
Oct 21
Last Quarter

Hourly Weather History & Observations

Time (CDT) Temp. Dew Point Humidity Pressure Visibility Wind Dir Wind Speed Gust Speed Precip Events Conditions
12:54 AM 59.0 °F 55.9 °F 90% 30.03 in 10.0 mi Calm Calm - N/A   Clear
1:54 AM 59.0 °F 55.9 °F 90% 30.02 in 10.0 mi Calm Calm - N/A   Clear
2:54 AM 57.9 °F 55.0 °F 90% 30.02 in 10.0 mi WSW 3.5 mph - N/A   Clear
3:54 AM 57.9 °F 55.0 °F 90% 30.02 in 10.0 mi North - - N/A   Clear
4:54 AM 57.9 °F 54.0 °F 87% 30.02 in 10.0 mi Calm Calm - N/A   Clear
5:54 AM 57.0 °F 53.1 °F 87% 30.03 in 10.0 mi South 4.6 mph - N/A   Clear
6:54 AM 57.0 °F 53.1 °F 87% 30.03 in 10.0 mi South 3.5 mph - N/A   Clear
7:54 AM 59.0 °F 55.0 °F 87% 30.04 in 10.0 mi SSW 5.8 mph - N/A   Clear
8:54 AM 64.0 °F 55.0 °F 73% 30.02 in 10.0 mi SSW 9.2 mph - N/A   Clear
9:54 AM 68.0 °F 55.0 °F 63% 30.01 in 10.0 mi SSW 9.2 mph - N/A   Clear
10:54 AM 71.1 °F 57.0 °F 61% 30.00 in 10.0 mi SSW 9.2 mph - N/A   Clear
11:54 AM 75.9 °F 57.0 °F 52% 29.98 in 10.0 mi SW 12.7 mph - N/A   Clear
12:54 PM 79.0 °F 57.0 °F 47% 29.96 in 10.0 mi SW 10.4 mph 18.4 mph N/A   Clear
1:54 PM 79.0 °F 57.0 °F 47% 29.92 in 10.0 mi SSW 16.1 mph - N/A   Clear
2:54 PM 79.0 °F 57.9 °F 48% 29.90 in 10.0 mi SW 9.2 mph - N/A   Clear
3:54 PM 79.0 °F 57.9 °F 48% 29.88 in 10.0 mi SSW 10.4 mph - N/A   Clear
4:54 PM 78.1 °F 55.9 °F 46% 29.87 in 10.0 mi SSW 13.8 mph 24.2 mph N/A   Clear
5:54 PM 75.9 °F 55.9 °F 50% 29.86 in 10.0 mi South 10.4 mph - N/A   Clear
6:54 PM 72.0 °F 57.0 °F 59% 29.84 in 10.0 mi South 10.4 mph - N/A   Clear
7:54 PM 70.0 °F 57.0 °F 63% 29.84 in 10.0 mi South 12.7 mph - N/A   Clear
8:54 PM 66.9 °F 55.9 °F 68% 29.81 in 10.0 mi South 9.2 mph - N/A   Clear
9:54 PM 66.9 °F 57.0 °F 70% 29.81 in 10.0 mi South 15.0 mph - N/A   Clear
10:54 PM 66.0 °F 57.0 °F 73% 29.78 in 10.0 mi South 12.7 mph - N/A   Clear
11:54 PM 64.9 °F 55.9 °F 73% 29.80 in 10.0 mi SW 8.1 mph - N/A   Mostly Cloudy